Simultaneous Nadir Overpasses (SNOs) Predictions

Prediction of SNOs between GOES-16 and METOP-C Satellite Orbit:

Table of predicted SNOs for the next 14.0 days since TLE Epoch: 4/25/2025
Index Date Time (GOES-16) GOES-16 Lat,Lon METOP-C Lat,Lon Distance(km) Time Diff (sec)
1 04/26/2025 14:46:05 0.07, -83.39 -0.84, -79.35 461.00 80
2 04/28/2025 03:05:09 -0.07, -84.15 -0.05, -83.98 19.42 80
3 04/29/2025 15:26:47 0.07, -84.94 0.88, -88.58 414.98 80
4 04/30/2025 15:03:30 0.06, -85.45 -0.33, -83.62 208.45 80
5 05/02/2025 03:25:15 -0.06, -86.21 -0.50, -88.26 233.08 80
6 05/03/2025 03:01:59 -0.05, -86.72 0.72, -83.29 390.76 80
7 05/04/2025 15:23:35 0.05, -87.52 0.16, -87.89 42.54 80
8 05/06/2025 03:42:40 -0.04, -88.29 -0.96, -92.54 482.71 80
9 05/07/2025 03:19:24 -0.04, -88.81 0.26, -87.57 142.10 80
10 05/08/2025 15:41:00 0.04, -89.62 0.60, -92.17 289.84 80
11 05/09/2025 15:17:44 0.04, -90.14 -0.63, -87.20 335.24 80
